Location: Johnson City
(36.3130°N, 82.3540°W)
Time: 14:10:06
(UTC-05:00)

OTV 5 (USA 277) - Visible Passes

Search period start: 23 February 2019 00:00
Search period end: 05 March 2019 00:00
Orbit: 342 x 346 km, 54.5° (Epoch: 17 February)

Date Brightness Start Highest point End Pass type
(mag) Time Alt. Az. Time Alt. Az. Time Alt. Az.
23 Feb ? 19:40:44 10° WSW 19:43:31 47° NW 19:44:18 35° N visible
24 Feb ? 20:05:32 10° WNW 20:07:21 15° NW 20:07:49 15° NNW visible
25 Feb ? 18:53:09 10° WSW 18:55:57 50° NW 18:58:46 10° NE visible
26 Feb ? 19:17:53 10° WNW 19:19:47 16° NW 19:21:41 10° N visible
